Date String (YYYY-MM-DD hh:mm:ss) UTC,Instrument flags,absolute air pressure of the measurement (hPa),sample flow rate (lpm),inlet stack bypass flow (lpm),air temperature of the measurement (°C),ambient temperature measured by the external sensor (°C),aerosol sample conditioner tube jacket temperature (°C),OPC LED temperature (°C),internal box temperature (°C),relative humidity of the measurement (%),span deviation,mass concentration of particles derived from Lorenz-Mie calculation of OPC scattering (μg/m³),mass concentration of particles derived from Lorenz-Mie calculation of OPC scattering (μg/m³),mass concentration of particles derived from Lorenz-Mie calculation of OPC scattering (μg/m³)
DateTimeUTC,F1_M11,P_M11,Q1_M11,Q2_M11,T1_M11,T2_M11,T3_M11,T4_M11,T5_M11,U1_M11,ZSPAN_M11,X0_M11,X2_M11,X1_M11
2024-05-22 21:00:00,SystemResetWarning,0823.3,5.00,000.00,028.4,027.8,000.0,036.5,030.1,009.4,0000.0,0008.49,0002.29,0001.60
2024-05-22 21:01:00,SystemResetWarning,0823.3,5.01,000.00,028.4,027.8,000.0,036.5,030.2,008.8,0000.0,0008.80,0002.25,0001.61
2024-05-22 21:02:00,SystemResetWarning,0823.3,5.01,000.00,028.4,027.8,000.0,036.5,030.2,008.4,0000.0,0009.52,0002.30,0001.61
2024-05-22 21:03:00,SystemResetWarning,0823.3,5.00,000.00,028.5,027.8,000.0,036.6,030.2,008.6,0000.0,0009.83,0002.33,0001.62
2024-05-22 21:04:00,SystemResetWarning,0823.3,5.00,000.00,028.5,027.8,000.0,036.6,030.2,008.2,0000.0,0010.39,0002.36,0001.62
2024-05-22 21:05:00,SystemResetWarning,0823.2,5.00,000.00,028.5,027.8,000.0,036.6,030.2,008.3,0000.0,0010.36,0002.38,0001.61
2024-05-22 21:06:00,SystemResetWarning,0823.3,5.01,000.00,028.5,027.9,000.0,036.6,030.3,009.0,0000.0,0009.04,0002.37,0001.61
2024-05-22 21:07:00,SystemResetWarning,0823.0,5.01,000.00,028.5,027.9,000.0,036.6,030.3,009.1,0000.0,0008.55,0002.34,0001.62
2024-05-22 21:08:00,SystemResetWarning,0823.1,5.00,000.00,028.6,027.9,000.0,036.6,030.3,009.3,0000.0,0008.68,0002.37,0001.62
2024-05-22 21:09:00,SystemResetWarning,0823.1,4.99,000.00,028.6,027.9,000.0,036.7,030.3,008.2,0000.0,0008.59,0002.41,0001.63
2024-05-22 21:10:00,SystemResetWarning,0823.1,5.00,000.00,028.6,027.9,000.0,036.7,030.3,008.4,0000.0,0008.68,0002.42,0001.63
2024-05-22 21:11:00,SystemResetWarning,0823.1,5.00,000.00,028.6,028.0,000.0,036.7,030.3,008.4,0000.0,0008.61,0002.41,0001.63
2024-05-22 21:12:00,SystemResetWarning,0823.1,4.99,000.00,028.6,028.0,000.0,036.7,030.3,008.6,0000.0,0008.66,0002.43,0001.62
2024-05-22 21:13:00,SystemResetWarning,0823.1,5.00,000.00,028.6,028.0,000.0,036.7,030.3,008.4,0000.0,0008.99,0002.39,0001.64
2024-05-22 21:14:00,SystemResetWarning,0823.1,5.00,000.00,028.6,028.0,000.0,036.7,030.4,008.5,0000.0,0008.86,0002.39,0001.63
2024-05-22 21:15:00,SystemResetWarning,0823.0,4.99,000.00,028.7,028.0,000.0,036.8,030.4,009.2,0000.0,0008.34,0002.40,0001.64
2024-05-22 21:16:00,SystemResetWarning,0823.0,5.00,000.00,028.7,028.0,000.0,036.8,030.4,008.3,0000.0,0008.44,0002.42,0001.64
2024-05-22 21:17:00,SystemResetWarning,0823.0,5.01,000.00,028.7,028.0,000.0,036.8,030.4,008.3,0000.0,0008.78,0002.42,0001.64
2024-05-22 21:18:00,SystemResetWarning,0823.0,4.99,000.00,028.7,028.1,000.0,036.8,030.4,008.3,0000.0,0008.78,0002.42,0001.64
2024-05-22 21:19:00,SystemResetWarning,0823.0,5.00,000.00,028.7,028.1,000.0,036.8,030.4,008.8,0000.0,0008.75,0002.44,0001.64
2024-05-22 21:20:00,SystemResetWarning,0823.0,5.01,000.00,028.7,028.1,000.0,036.8,030.4,008.2,0000.0,0009.33,0002.39,0001.63
2024-05-22 21:21:00,SystemResetWarning,0823.1,5.01,000.00,028.8,028.1,000.0,036.9,030.4,008.0,0000.0,0009.29,0002.38,0001.62
2024-05-22 21:22:00,SystemResetWarning,0823.0,4.99,000.00,028.8,028.1,000.0,036.9,030.5,008.2,0000.0,0009.56,0002.39,0001.63
2024-05-22 21:23:00,SystemResetWarning,0823.0,4.99,000.00,028.8,028.1,000.0,036.9,030.5,008.0,0000.0,0010.13,0002.40,0001.63
2024-05-22 21:24:00,SystemResetWarning,0823.0,4.99,000.00,028.8,028.1,000.0,036.9,030.5,008.1,0000.0,0009.07,0002.37,0001.61
2024-05-22 21:25:00,SystemResetWarning,0822.9,5.01,000.00,028.8,028.2,000.0,036.9,030.5,008.0,0000.0,0008.70,0002.32,0001.60
2024-05-22 21:26:00,SystemResetWarning,0823.0,5.01,000.00,028.8,028.2,000.0,036.9,030.5,008.6,0000.0,0008.74,0002.31,0001.58
2024-05-22 21:27:00,SystemResetWarning,0822.9,4.99,000.00,028.8,028.2,000.0,036.9,030.6,008.6,0000.0,0008.60,0002.29,0001.57
2024-05-22 21:28:00,SystemResetWarning,0823.0,4.99,000.00,028.9,028.2,000.0,037.0,030.6,009.3,0000.0,0008.13,0002.26,0001.56
2024-05-22 21:29:00,SystemResetWarning,0823.0,5.00,000.00,028.9,028.2,000.0,037.0,030.6,008.5,0000.0,0008.39,0002.27,0001.56
2024-05-22 21:30:00,SystemResetWarning,0822.9,5.01,000.00,028.9,028.3,000.0,037.0,030.6,008.3,0000.0,0008.72,0002.21,0001.54
2024-05-22 21:31:00,SystemResetWarning,0822.9,5.01,000.00,028.9,028.3,000.0,037.0,030.6,008.7,0000.0,0008.57,0002.25,0001.54
2024-05-22 21:32:00,SystemResetWarning,0822.9,5.00,000.00,028.9,028.3,000.0,037.0,030.7,008.2,0000.0,0008.43,0002.23,0001.53
2024-05-22 21:33:00,SystemResetWarning,0823.1,5.00,000.00,029.0,028.3,000.0,037.1,030.7,008.1,0000.0,0007.58,0002.17,0001.50
2024-05-22 21:34:00,SystemResetWarning,0822.9,5.00,000.00,029.0,028.3,000.0,037.1,030.7,008.7,0000.0,0006.84,0002.13,0001.50
2024-05-22 21:35:00,SystemResetWarning,0822.8,5.00,000.00,029.0,028.4,000.0,037.1,030.7,008.4,0000.0,0007.63,0002.12,0001.51
2024-05-22 21:36:00,SystemResetWarning,0822.9,5.00,000.00,029.0,028.4,000.0,037.1,030.7,008.3,0000.0,0007.73,0002.15,0001.52
2024-05-22 21:37:00,SystemResetWarning,0822.8,4.99,000.00,029.0,028.4,000.0,037.1,030.8,008.3,0000.0,0007.72,0002.17,0001.52
2024-05-22 21:38:00,SystemResetWarning,0822.9,5.00,000.00,029.1,028.4,000.0,037.2,030.8,008.2,0000.0,0007.82,0002.20,0001.52
2024-05-22 21:39:00,SystemResetWarning,0822.9,5.00,000.00,029.1,028.4,000.0,037.2,030.8,007.9,0000.0,0007.87,0002.24,0001.52
2024-05-22 21:40:00,SystemResetWarning,0822.9,5.00,000.00,029.1,028.4,000.0,037.2,030.8,008.3,0000.0,0007.69,0002.26,0001.52
2024-05-22 21:41:00,SystemResetWarning,0822.8,5.00,000.00,029.1,028.5,000.0,037.2,030.8,008.2,0000.0,0007.21,0002.27,0001.53
2024-05-22 21:42:00,SystemResetWarning,0823.1,5.00,000.00,029.1,028.5,000.0,037.3,030.8,007.9,0000.0,0006.96,0002.26,0001.52
2024-05-22 21:43:00,SystemResetWarning,0823.2,5.01,000.00,029.1,028.5,000.0,037.3,030.8,007.7,0000.0,0007.30,0002.28,0001.53
2024-05-22 21:44:00,SystemResetWarning,0823.1,5.01,000.00,029.2,028.5,000.0,037.3,030.9,008.2,0000.0,0008.28,0002.31,0001.53
2024-05-22 21:45:00,SystemResetWarning,0822.8,5.00,000.00,029.2,028.5,000.0,037.3,030.9,007.8,0000.0,0008.24,0002.33,0001.53
2024-05-22 21:46:00,SystemResetWarning,0822.7,4.99,000.00,029.2,028.6,000.0,037.3,030.9,008.3,0000.0,0007.59,0002.32,0001.53
2024-05-22 21:47:00,SystemResetWarning,0822.7,5.00,000.00,029.2,028.6,000.0,037.3,030.9,008.9,0000.0,0007.48,0002.28,0001.52
2024-05-22 21:48:00,SystemResetWarning,0822.9,4.99,000.00,029.2,028.6,000.0,037.3,030.9,008.9,0000.0,0007.99,0002.23,0001.50
2024-05-22 21:49:00,SystemResetWarning,0822.7,5.00,000.00,029.3,028.6,000.0,037.4,031.0,009.7,0000.0,0008.88,0002.19,0001.50
2024-05-22 21:50:00,SystemResetWarning,0822.7,5.00,000.00,029.3,028.6,000.0,037.4,031.0,009.5,0000.0,0009.85,0002.15,0001.49
2024-05-22 21:51:00,SystemResetWarning,0822.8,5.00,000.00,029.3,028.7,000.0,037.4,031.0,009.5,0000.0,0009.88,0002.10,0001.48
2024-05-22 21:52:00,SystemResetWarning,0822.7,5.00,000.00,029.3,028.7,000.0,037.4,031.0,009.2,0000.0,0009.88,0002.13,0001.49
2024-05-22 21:53:00,SystemResetWarning,0822.7,5.00,000.00,029.3,028.7,000.0,037.5,031.0,008.8,0000.0,0009.79,0002.15,0001.50
2024-05-22 21:54:00,SystemResetWarning,0822.7,5.01,000.00,029.3,028.7,000.0,037.5,031.1,008.7,0000.0,0010.36,0002.14,0001.49
2024-05-22 21:55:00,SystemResetWarning,0822.8,5.00,000.00,029.4,028.7,000.0,037.5,031.1,008.4,0000.0,0009.60,0002.14,0001.49
2024-05-22 21:56:00,SystemResetWarning,0822.7,5.00,000.00,029.4,028.7,000.0,037.5,031.1,008.4,0000.0,0009.26,0002.16,0001.48
2024-05-22 21:57:00,SystemResetWarning,0822.6,5.00,000.00,029.4,028.8,000.0,037.5,031.1,008.6,0000.0,0009.29,0002.17,0001.47
2024-05-22 21:58:00,SystemResetWarning,0822.6,5.00,000.00,029.4,028.8,000.0,037.6,031.1,008.4,0000.0,0009.70,0002.21,0001.47
2024-05-22 21:59:00,SystemResetWarning,0822.9,5.00,000.00,029.4,028.8,000.0,037.6,031.1,008.3,0000.0,0009.48,0002.23,0001.48
